Weather History for Boscobel, WI

Change the Weather History Date:

Wednesday, January 2, 2013

  Actual Average (KPDC) Record (KPDC)
Temperature  
Mean Temperature 12 °F -  
Max Temperature 21 °F 27 °F 45 °F (1950)
Min Temperature 3 °F 8 °F -24 °F (1979)
Degree Days  
Heating Degree Days 53    
Moisture  
Dew Point 10 °F    
Average Humidity 73    
Maximum Humidity 86    
Minimum Humidity 57    
Precipitation  
Precipitation 0.00 in - - ()
Sea Level Pressure  
Sea Level Pressure 30.11 in    
Wind  
Wind Speed 2 mph (SSW)    
Max Wind Speed 8 mph    
Max Gust Speed -    
Visibility 9 miles    
Events      
Averages and records for this station are not official NWS values.
T = Trace of Precipitation, MM = Missing Value Source: NWS Daily Summary

Daily Weather History Graph

Daily Weather History Graph

Search for Another Location

Airport:

Trip Planner

Search our weather history database for the weather conditions in past years. The results will help you decide how hot, cold, wet, or windy it might be!

Date:

Astronomy

Jan. 02, 2013 Rise Set
Actual Time 7:34 AM CST 4:39 PM CST
Civil Twilight 7:02 AM CST 5:11 PM CST
Nautical Twilight 6:26 AM CST 5:47 PM CST
Astronomical Twilight 5:52 AM CST 6:21 PM CST
Moon 10:21 PM CST 10:07 AM CST
Length of Visible Light 10h 09m
Length of Day
9h 04m
Waning Gibbous, 75% of the Moon is Illuminated
Jan 2
Waning Gibbous
Jan 4
Last Quarter
Jan 11
New
Jan 18
First Quarter
Jan 26
Full

Hourly Weather History & Observations

Time (CST) Temp. Windchill Dew Point Humidity Pressure Visibility Wind Dir Wind Speed Gust Speed Precip Events Conditions
12:53 AM 14.0 °F - 6.1 °F 71% 30.18 in 10.0 mi Calm Calm - N/A   Overcast
1:53 AM 15.1 °F - 7.0 °F 70% 30.18 in 10.0 mi Calm Calm - N/A   Overcast
2:53 AM 15.1 °F 7.7 °F 8.1 °F 74% 30.18 in 10.0 mi SW 4.6 mph - N/A   Overcast
3:53 AM 15.1 °F 9.4 °F 9.0 °F 77% 30.17 in 10.0 mi SW 3.5 mph - N/A   Overcast
4:40 AM 12.2 °F - 6.8 °F 79% 30.11 in 10.0 mi Calm Calm - N/A   Scattered Clouds
4:53 AM 12.9 °F 6.9 °F 6.1 °F 74% 30.16 in 10.0 mi SSW 3.5 mph - N/A   Clear
6:53 AM 7.0 °F - 1.0 °F 77% 30.15 in 10.0 mi Calm Calm - N/A   Clear
7:53 AM 3.0 °F - -0.9 °F 84% 30.16 in 10.0 mi Calm Calm - N/A   Clear
9:53 AM 15.1 °F - 3.9 °F 61% 30.14 in 10.0 mi Calm Calm - N/A   Clear
10:53 AM 18.0 °F 12.7 °F 5.0 °F 57% 30.12 in 10.0 mi Variable 3.5 mph - N/A   Clear
11:53 AM 19.9 °F 12.1 °F 8.1 °F 60% 30.10 in 10.0 mi South 5.8 mph - N/A   Mostly Cloudy
12:53 PM 21.0 °F 13.4 °F 9.0 °F 60% 30.07 in 10.0 mi SSW 5.8 mph - N/A   Partly Cloudy
1:53 PM 21.9 °F 13.4 °F 10.9 °F 63% 30.06 in 10.0 mi SW 6.9 mph - N/A   Overcast
2:53 PM 21.9 °F 12.5 °F 10.9 °F 63% 30.07 in 10.0 mi SSW 8.1 mph - N/A   Partly Cloudy
3:53 PM 21.9 °F 13.4 °F 12.0 °F 66% 30.08 in 10.0 mi South 6.9 mph - N/A   Overcast
4:53 PM 21.0 °F 16.2 °F 12.9 °F 71% 30.09 in 10.0 mi South 3.5 mph - N/A   Overcast
5:53 PM 21.0 °F - 12.9 °F 71% 30.10 in 10.0 mi Calm Calm - N/A   Overcast
6:53 PM 21.0 °F 16.2 °F 14.0 °F 74% 30.11 in 10.0 mi SW 3.5 mph - N/A   Overcast
7:46 PM 21.2 °F - 15.8 °F 80% 30.06 in 9.0 mi Calm Calm - N/A   Overcast
8:53 PM 21.0 °F 14.6 °F 16.0 °F 81% 30.10 in 7.0 mi SW 4.6 mph - 0.00 in   Overcast
9:53 PM 21.9 °F 14.5 °F 17.1 °F 82% 30.10 in 7.0 mi SW 5.8 mph - N/A   Overcast
10:34 PM 21.2 °F 16.4 °F 17.6 °F 86% 30.07 in 7.0 mi SW 3.5 mph - N/A   Overcast
10:53 PM 21.9 °F 17.2 °F 17.1 °F 82% 30.11 in 7.0 mi SW 3.5 mph - N/A   Overcast
11:04 PM 21.2 °F 16.4 °F 17.6 °F 86% 30.07 in 7.0 mi SW 3.5 mph - N/A   Overcast
11:53 PM 21.9 °F 17.2 °F 18.0 °F 85% 30.11 in 7.0 mi SW 3.5 mph - N/A   Overcast